Home   Weather   Paris 07   Past weeks
Flag for France

Past Weather in Paris 07, Paris, France — Yesterday and Last 2 Weeks

Now
64 °F

Clear.


Feels Like: 64 °F
Forecast: 80 / 60 °F
Wind: 7 mph from Northeast

Location: Villacoublay
Current Time: Sep 20, 2020 at 4:09:30 am
Latest Report: Sep 20, 2020 at 3:00 am
Visibility: 6 mi
Pressure29.92 "Hg
Humidity: 94%
Dew Point: 63 °F
Location of Paris 07Location

Past Weather in Paris 07 — Graph

°F

Paris 07 Temperature Yesterday

Maximum temperature yesterday: 81 °F (at 1:30 pm)
Minimum temperature yesterday: 66 °F (at 8:30 pm)
Average temperature yesterday: 72 °F

High & Low Weather Summary for the Past Weeks

 TemperatureHumidityPressure
High90 °F (Sep 14, 4:00 pm)100% (Sep 7, 7:00 am)30.36 "Hg (Sep 7, 7:00 am)
Low48 °F (Sep 6, 7:30 am)26% (Sep 14, 5:30 pm)29.89 "Hg (Sep 19, 4:00 pm)
Average68 °F62%30.15 "Hg
* Reported Sep 5 3:00 am — Sep 20 3:00 am, Paris 07. Weather by CustomWeather, © 2020

Note: Actual official high and low records may vary slightly from our data, if they occured in-between our weather recording intervals... More about our weather records

Paris 07 Weather History for the Previous 24 Hours

Scroll right to see more
 ConditionsComfort  
Time TempWeatherWind HumidityBarometerVisibility
3:00 am
Sun, Sep 20
64 °FClear.7 mph94%29.92 "Hg6 mi
2:30 am64 °FClear.3 mph94%29.92 "Hg10 mi
2:00 am64 °FClear.5 mph94%29.92 "Hg10 mi
1:30 am64 °FClear.2 mph94%29.92 "Hg10 mi
1:00 am64 °FClear.5 mph94%29.92 "Hg10 mi
12:30 am64 °FClear.3 mph88%29.92 "Hg10 mi
12:00 am66 °FPassing clouds.3 mph88%29.95 "HgN/A
11:30 pm
Sat, Sep 19
66 °FPassing clouds.7 mph88%29.95 "HgN/A
11:00 pm68 °FClear.7 mph88%29.92 "Hg10 mi
10:30 pm68 °FClear.6 mph88%29.92 "Hg10 mi
10:00 pm68 °FClear.7 mph78%29.92 "Hg10 mi
9:30 pm68 °FClear.7 mph78%29.92 "Hg10 mi
9:00 pm68 °FMild.7 mph83%29.92 "HgN/A
8:30 pm66 °FLight rain. Partly cloudy.7 mph94%29.92 "Hg4 mi
8:00 pm68 °FThunderstorms. Mostly cloudy.7 mph88%29.92 "HgN/A
7:30 pm68 °FHeavy rain. Fog.3 mph83%29.92 "Hg3 mi
7:00 pm70 °FLight rain. Broken clouds.5 mph88%29.92 "Hg4 mi
6:30 pm70 °FLight rain. Cloudy.7 mph83%29.92 "HgN/A
6:00 pm70 °FLight rain. More clouds than sun.3 mph88%29.89 "Hg6 mi
5:30 pm77 °FLight rain. Broken clouds.5 mph57%29.89 "HgN/A
5:00 pm79 °FWarm.3 mph51%29.89 "HgN/A
4:30 pm81 °FWarm.5 mph48%29.89 "HgN/A
4:00 pm81 °FPassing clouds.3 mph45%29.89 "HgN/A
3:00 pm81 °FPassing clouds.10 mph48%29.92 "HgN/A
2:30 pm81 °FPassing clouds.14 mph45%29.92 "HgN/A
2:00 pm81 °FPassing clouds.9 mph48%29.92 "HgN/A
1:30 pm81 °FPartly sunny.7 mph48%29.92 "HgN/A
1:00 pm79 °FPassing clouds.8 mph51%29.92 "HgN/A
12:30 pm77 °FPassing clouds.8 mph54%29.95 "HgN/A
12:00 pm75 °FMore clouds than sun.9 mph57%29.95 "HgN/A
11:30 am73 °FBroken clouds.10 mph61%29.95 "HgN/A
11:00 am73 °FPassing clouds.10 mph61%29.95 "HgN/A
10:30 am73 °FPassing clouds.10 mph61%29.95 "HgN/A
10:00 am72 °FPassing clouds.7 mph69%29.95 "HgN/A
9:30 am70 °FSunny.6 mph73%29.95 "Hg10 mi
9:00 am70 °FSunny.7 mph73%29.95 "Hg10 mi
8:30 am70 °FSunny.7 mph73%29.95 "Hg10 mi
8:00 am70 °FSunny.7 mph69%29.95 "Hg10 mi
7:30 am70 °FPassing clouds.8 mph69%29.92 "HgN/A
7:00 am70 °FClear.7 mph64%29.92 "Hg10 mi
6:30 am70 °FClear.8 mph64%29.92 "Hg10 mi
6:00 am70 °FClear.10 mph64%29.92 "Hg10 mi
5:30 am72 °FPassing clouds.10 mph57%29.92 "HgN/A
5:00 am72 °FClear.10 mph61%29.92 "Hg10 mi
4:30 am72 °FClear.8 mph61%29.92 "Hg10 mi
4:00 am72 °FPassing clouds.9 mph61%29.92 "HgN/A
Weather by CustomWeather, © 2020

See weather overview